FENGYUN 1C DEB

Satellite information

Favourite Embed

Satellite Type and Status

DEBRISIN ORBIT

Key statistics

Satellite FENGYUN 1C DEB at a glance.

Uptime

9496

Days in orbit

Revolutions

≈ 14.6

Per day

Orbit

SSO

Sun Synchronous Orbit

Inclination

99.2

Latest

Satellite identification and parameters

Extended collection of information and parameters for FENGYUN 1C DEB.

Object identification

Identified? True

Debris? True

Object name: FENGYUN 1C DEB

International designator: 1999-025BKN

Object number (NORAD): 31208

Object ID (CCSDS): 31208

Country: PEOPLES REPUBLIC OF CHINA (PRC)

Current information (Y/N): Y

RCS size: SMALL

Orbital parameters

Period: 98.898 minutes

Inclination: 99.2322 deg

SMA: 7084.114 km

Apoapsis: 718.55 km

Periapsis: 693.408 km

RAAN: 244.3259 deg

Eccentricy: 0.0017745

Argument of periapsis: 212.8339 deg

Mean anomaly: 321.9797 deg

Mean motion: 14.56043813 rev/day

Mean motion (dot): 0.00014145 rev/day2

B* drag term: 0.0032111 1/REarth

Two-line elements (TLE)

Creation date: May 6, 2025, 3:54 a.m.

Reference frame: TEME

Reference center: EARTH

Epoch: May 5, 2025, 2:17 a.m. UTC

TLE line 0: 0 FENGYUN 1C DEB

TLE line 1: 1 31208U 99025BKN 25125.09566969 .00014145 00000-0 32111-2 0 9999

TLE line 2: 2 31208 99.2322 244.3259 0017745 212.8339 321.9797 14.56043813672484

Live tracking on map

Real-time ground track for satellite FENGYUN 1C DEB.

In-orbit conjunctions

A list of the most updated potential collisions computed for object FENGYUN 1C DEB.

Target Orbit TCA Probability of collision Miss distance Type
CZ-6A DEB LEO 2025-02-11 08:02:50 0.0001136427 522.0 (m) DEBRIS
COSMOS 2251 DEB LEO 2024-11-09 08:32:16 0.0001948609 770.0 (m) DEBRIS
COSMOS 2251 DEB LEO 2024-11-08 10:59:20 0.0001046109 143.0 (m) DEBRIS
SL-8 R/B LEO 2024-09-07 13:24:38 0.0002679649 109.0 (m) ROCKET BODY

Associated space launch

Chinese polar orbiting meteorological satellite

FENGYUN 1C DEB was lifted into orbit during the mission ‘Long March 4B | Feng Yun 1C’, on board a Long March 4B space rocket.

The launch took place on May 10, 1999, 1:33 a.m. from Launch Complex 7.

For more information about the launch, click the button.

Launch to space Long March 4B | Feng Yun 1C
Long March 4B | Feng Yun 1C

Agency: N/A

Status: Launch Successful

Launch date: May 10, 1999, 1:33 a.m. UTC

Rocket: Long March 4B

Launch pad: Launch Complex 7

Location: Taiyuan Satellite Launch Center, People's Republic of China

...

Latest news about this satellite

There are no fresh news available about this satellite. Check back as we update our databases every day.


Newsletter sign-up

Weekly statistics, charts and insights to help you stay on top of the space industry.